Weather History for Ashland, WI

Change the Weather History Date:

Monday, December 12, 2011

  Actual Average Record
Temperature  
Mean Temperature 35 °F -  
Max Temperature 37 °F 29 °F 49 °F (1949)
Min Temperature 33 °F 10 °F -15 °F (1962)
Degree Days  
Heating Degree Days 30    
Moisture  
Dew Point 35 °F    
Average Humidity 98    
Maximum Humidity 100    
Minimum Humidity 79    
Precipitation  
Precipitation 0.00 in - - ()
Sea Level Pressure  
Sea Level Pressure 30.24 in    
Wind  
Wind Speed 2 mph (NNE)    
Max Wind Speed 13 mph    
Max Gust Speed -    
Visibility 2 miles    
Events Fog    
Averages and records for this station are not official NWS values.
T = Trace of Precipitation, MM = Missing Value Source: NWS Daily Summary

Daily Weather History Graph

Daily Weather History Graph

Search for Another Location

Airport:

Trip Planner

Search our weather history database for the weather conditions in past years. The results will help you decide how hot, cold, wet, or windy it might be!

Date:

Astronomy

Dec. 12, 2011 Rise Set
Actual Time 7:38 AM CST 4:16 PM CST
Civil Twilight 7:03 AM CST 4:51 PM CST
Nautical Twilight 6:25 AM CST 5:29 PM CST
Astronomical Twilight 5:48 AM CST 6:06 PM CST
Moon 6:30 PM CST (12/12) 9:07 AM CST (12/12)
Length of Visible Light 9h 47m
Length of Day
8h 37m
Waning Gibbous, 95% of the Moon is Illuminated
Dec 12
Waning Gibbous
Dec 17
Last Quarter
Dec 24
New
Jan 1
First Quarter
Jan 9
Full

Hourly Weather History & Observations

Time (CST) Temp. Windchill Dew Point Humidity Pressure Visibility Wind Dir Wind Speed Gust Speed Precip Events Conditions
12:53 AM 36.0 °F - 30.0 °F 79% 30.15 in 7.0 mi Calm Calm - N/A   Overcast
1:53 AM 36.0 °F - 30.0 °F 79% 30.15 in 7.0 mi Calm Calm - N/A   Overcast
2:53 AM 35.1 °F - 30.0 °F 82% 30.16 in 7.0 mi Calm Calm - N/A   Overcast
3:53 AM 35.1 °F 32.2 °F 33.1 °F 92% 30.16 in 3.0 mi South 3.5 mph - N/A   Overcast
4:53 AM 35.1 °F - 34.0 °F 96% 30.16 in 4.0 mi Calm Calm - N/A   Overcast
5:53 AM 36.0 °F 33.3 °F 34.0 °F 93% 30.17 in 4.0 mi South 3.5 mph - N/A   Overcast
6:36 AM 35.6 °F 32.8 °F 35.6 °F 100% 30.15 in 4.0 mi South 3.5 mph - N/A   Overcast
6:53 AM 36.0 °F - 35.1 °F 97% 30.19 in 3.0 mi Calm Calm - N/A   Overcast
7:06 AM 35.6 °F 32.8 °F 35.6 °F 100% 30.16 in 2.5 mi South 3.5 mph - N/A   Overcast
8:19 AM 35.6 °F - 35.6 °F 100% 30.16 in 1.0 mi Calm Calm - N/A   Overcast
8:28 AM 35.6 °F - 35.6 °F 100% 30.17 in 0.8 mi Calm Calm - N/A   Overcast
8:53 AM 35.1 °F - 35.1 °F 100% 30.21 in 0.8 mi Calm Calm - N/A   Overcast
9:53 AM 36.0 °F - 36.0 °F 100% 30.23 in 0.8 mi Calm Calm - N/A   Overcast
10:49 AM 35.6 °F - 35.6 °F 100% 30.20 in 0.5 mi Calm Calm - N/A Fog Fog
10:53 AM 36.0 °F - 36.0 °F 100% 30.23 in 0.5 mi Calm Calm - N/A Fog Fog
11:30 AM 35.6 °F - 35.6 °F 100% 30.20 in 0.5 mi Calm Calm - N/A Fog Fog
11:44 AM 35.6 °F - 35.6 °F 100% 30.20 in 0.5 mi Calm Calm - N/A Fog Fog
11:53 AM 36.0 °F - 36.0 °F 100% 30.23 in 0.5 mi Calm Calm - N/A Fog Fog
12:16 PM 37.4 °F - 35.6 °F 93% 30.19 in 0.5 mi Calm Calm - N/A Fog Fog
12:27 PM 35.6 °F 32.8 °F 35.6 °F 100% 30.19 in 0.2 mi NW 3.5 mph - N/A Fog Fog
12:53 PM 36.0 °F - 35.1 °F 97% 30.23 in 0.2 mi Calm Calm - N/A Fog Fog
1:53 PM 36.0 °F - 36.0 °F 100% 30.23 in 0.2 mi Calm Calm - N/A Fog Fog
2:53 PM 36.0 °F - 36.0 °F 100% 30.24 in 0.2 mi Calm Calm - N/A Fog Fog
3:53 PM 35.1 °F - 35.1 °F 100% 30.26 in 0.2 mi Calm Calm - N/A Fog Fog
4:53 PM 35.1 °F - 35.1 °F 100% 30.28 in 0.2 mi Calm Calm - N/A Fog Fog
5:53 PM 35.1 °F - 35.1 °F 100% 30.29 in 0.2 mi Calm Calm - N/A Fog Fog
6:02 PM 35.6 °F 32.8 °F 35.6 °F 100% 30.26 in 0.2 mi North 3.5 mph - N/A Fog Fog
6:29 PM 35.6 °F 28.6 °F 35.6 °F 100% 30.28 in 0.8 mi North 9.2 mph - N/A   Mist
6:37 PM 35.6 °F 29.2 °F 35.6 °F 100% 30.28 in 1.0 mi NNE 8.1 mph - N/A   Mist
6:53 PM 35.1 °F 29.3 °F 35.1 °F 100% 30.31 in 1.0 mi NNE 6.9 mph - N/A   Mist
7:00 PM 35.6 °F 29.9 °F 35.6 °F 100% 30.28 in 0.8 mi North 6.9 mph - N/A   Mist
7:53 PM 34.0 °F 26.0 °F 34.0 °F 100% 30.33 in 1.2 mi NNE 10.4 mph - N/A   Overcast
8:11 PM 33.8 °F 25.8 °F 33.8 °F 100% 30.30 in 2.5 mi NE 10.4 mph - N/A   Overcast
8:53 PM 34.0 °F 25.0 °F 34.0 °F 100% 30.35 in 3.0 mi NNE 12.7 mph - N/A   Overcast
9:34 PM 33.8 °F 26.4 °F 33.8 °F 100% 30.33 in 2.5 mi NE 9.2 mph - N/A   Overcast
9:53 PM 33.1 °F 24.9 °F 33.1 °F 100% 30.36 in 2.5 mi NNE 10.4 mph - N/A   Overcast
10:40 PM 33.8 °F 27.0 °F 33.8 °F 100% 30.32 in 3.0 mi NE 8.1 mph - N/A   Overcast
10:53 PM 33.1 °F 24.9 °F 33.1 °F 100% 30.37 in 3.0 mi NE 10.4 mph - N/A   Overcast
11:53 PM 33.1 °F 24.9 °F 33.1 °F 100% 30.38 in 4.0 mi NNE 10.4 mph - N/A   Overcast